Racine, WI

4:40 AM CST on February 12, 2016 (GMT -0600)
Batten

Weather History for KRAC - August, 2013

Change the Weather History Date:

Tuesday, August 6, 2013

  Actual Average Record
Temperature  
Mean Temperature 73 °F -  
Max Temperature 82 °F 78 °F 96 °F (1968)
Min Temperature 64 °F 62 °F 50 °F (1948)
Cooling Degree Days 8    
Growing Degree Days 23 (Base 50)    
Moisture  
Dew Point 66 °F    
Average Humidity 82    
Maximum Humidity 94    
Minimum Humidity 60    
Precipitation  
Precipitation 0.05 in - - ()
Sea Level Pressure  
Sea Level Pressure 29.86 in    
Wind  
Wind Speed 6 mph (SSW)    
Max Wind Speed 12 mph    
Max Gust Speed 20 mph    
Visibility 8 miles    
Events Rain    
Averages and records for this station are not official NWS values.
T = Trace of Precipitation, MM = Missing Value Source: NWS Daily Summary

Daily Weather History Graph

Daily Weather History Graph

Search for Another Location

Airport or City:

Trip Planner

Search our weather history database for the weather conditions in past years. The results will help you decide how hot, cold, wet, or windy it might be!

Date:

Astronomy

Aug. 06, 2013 Rise Set
Actual Time 5:48 AM CDT 8:05 PM CDT
Civil Twilight 5:16 AM CDT 8:36 PM CDT
Nautical Twilight 4:37 AM CDT 9:15 PM CDT
Astronomical Twilight 3:54 AM CDT 9:58 PM CDT
Moon 5:40 AM CDT (8/6) 7:37 PM CDT (8/6)
Length of Visible Light 15h 19m
Length of Day
14h 16m
Waning Crescent, 0% of the Moon is Illuminated
Aug 6
Waning Crescent
Aug 6
New
Aug 14
First Quarter
Aug 20
Full
Aug 28
Last Quarter

Hourly Weather History & Observations

Time (CDT) Temp. Heat Index Dew Point Humidity Pressure Visibility Wind Dir Wind Speed Gust Speed Precip Events Conditions
12:53 AM 66.0 °F - 62.1 °F 87% 29.88 in 10.0 mi South 5.8 mph - N/A   Overcast
1:25 AM 66.2 °F - 62.6 °F 88% 29.89 in 10.0 mi SSW 5.8 mph - N/A   Overcast
1:53 AM 66.9 °F - 63.0 °F 87% 29.89 in 6.0 mi SW 8.1 mph - 0.01 in Rain Light Rain
2:02 AM 66.2 °F - 62.6 °F 88% 29.89 in 2.5 mi SW 8.1 mph - 0.03 in Rain Light Rain
2:09 AM 66.2 °F - 62.6 °F 88% 29.89 in 9.0 mi SW 6.9 mph - 0.03 in   Overcast
2:53 AM 64.9 °F - 63.0 °F 93% 29.88 in 6.0 mi South 3.5 mph - 0.03 in   Partly Cloudy
3:27 AM 66.2 °F - 64.4 °F 94% 29.88 in 6.0 mi South 5.8 mph - N/A   Mostly Cloudy
3:53 AM 66.0 °F - 64.0 °F 93% 29.85 in 6.0 mi South 3.5 mph - N/A   Overcast
4:53 AM 64.9 °F - 63.0 °F 93% 29.85 in 4.0 mi Calm Calm - N/A   Clear
5:53 AM 64.9 °F - 63.0 °F 93% 29.86 in 3.0 mi Calm Calm - N/A   Clear
6:16 AM 64.4 °F - 62.6 °F 94% 29.87 in 2.5 mi Calm Calm - N/A   Clear
6:53 AM 66.0 °F - 63.0 °F 90% 29.86 in 3.0 mi SSW 3.5 mph - 0.01 in   Clear
7:53 AM 69.1 °F - 64.9 °F 87% 29.88 in 7.0 mi SW 4.6 mph - N/A   Clear
8:26 AM 69.8 °F - 66.2 °F 88% 29.89 in 8.0 mi WSW 4.6 mph - N/A   Scattered Clouds
8:37 AM 69.8 °F - 66.2 °F 88% 29.89 in 8.0 mi SW 6.9 mph - N/A   Mostly Cloudy
8:53 AM 71.1 °F - 66.9 °F 87% 29.88 in 7.0 mi WSW 4.6 mph - N/A   Overcast
9:08 AM 71.6 °F - 66.2 °F 83% 29.89 in 9.0 mi WSW 5.8 mph - N/A   Overcast
9:53 AM 72.0 °F - 66.9 °F 84% 29.89 in 9.0 mi West 8.1 mph - N/A   Overcast
10:53 AM 73.0 °F - 66.0 °F 79% 29.90 in 10.0 mi West 6.9 mph - N/A   Overcast
11:49 AM 78.8 °F - 66.2 °F 65% 29.89 in 10.0 mi SW 9.2 mph - N/A   Scattered Clouds
11:53 AM 78.1 °F - 66.9 °F 68% 29.88 in 10.0 mi WSW 8.1 mph - N/A   Scattered Clouds
12:53 PM 80.1 °F 82.3 °F 66.9 °F 64% 29.87 in 10.0 mi SW 10.4 mph 16.1 mph N/A   Mostly Cloudy
1:53 PM 81.0 °F 83.3 °F 66.9 °F 62% 29.86 in 10.0 mi SW 9.2 mph 19.6 mph N/A   Scattered Clouds
2:53 PM 81.0 °F 83.3 °F 66.9 °F 62% 29.84 in 10.0 mi SW 9.2 mph - N/A   Scattered Clouds
3:53 PM 82.0 °F 84.5 °F 66.9 °F 60% 29.83 in - WSW 9.2 mph 17.3 mph N/A   Partly Cloudy
4:53 PM 81.0 °F 84.1 °F 69.1 °F 67% 29.83 in 10.0 mi SW 9.2 mph - N/A   Clear
5:27 PM 78.8 °F - 69.8 °F 74% 29.85 in 9.0 mi SSE 11.5 mph - N/A   Mostly Cloudy
5:51 PM 77.0 °F - 68.0 °F 74% 29.85 in 8.0 mi South 10.4 mph - N/A   Scattered Clouds
5:53 PM 77.0 °F - 68.0 °F 74% 29.84 in 8.0 mi SSE 11.5 mph - N/A   Scattered Clouds
6:53 PM 75.9 °F - 68.0 °F 76% 29.85 in 8.0 mi South 9.2 mph - N/A   Partly Cloudy
7:53 PM 73.9 °F - 68.0 °F 82% 29.84 in 10.0 mi South 8.1 mph - N/A   Clear
8:53 PM 73.0 °F - 69.1 °F 87% 29.84 in 10.0 mi South 5.8 mph - N/A   Partly Cloudy
9:53 PM 73.0 °F - 69.1 °F 87% 29.83 in 9.0 mi South 4.6 mph - N/A   Clear
10:53 PM 75.0 °F - 71.1 °F 87% 29.83 in 9.0 mi SW 9.2 mph - N/A   Clear
11:33 PM 75.2 °F - 71.6 °F 89% 29.84 in 8.0 mi SW 10.4 mph - N/A   Mostly Cloudy
11:46 PM 73.4 °F - 71.6 °F 94% 29.84 in 8.0 mi SSW 10.4 mph - N/A   Scattered Clouds
11:53 PM 73.9 °F - 71.1 °F 91% 29.83 in 8.0 mi SSW 10.4 mph - N/A   Partly Cloudy